Content
SEND FEEDBACK

Daily
Averages
Monthly
Summary
United States of America

YIGO, GUAM


Home > North America > United States > Guam
Elevation: 530 feet     Latitude: 13 32N     Longitude: 144 53E

WEATHER
 
SELECT A DAY
Number of Records: 208,807;   Date Range: 1/1/95 - 7/7/14
 
SHARE

PRINT THIS DATA

[ ← Previous Day ]
WEATHER ALMANAC - MARCH 15, 2013
[ Next Day → ]
[ °C ]   °F
Weather ElementAverageHighLow
Temperature82.4 °F89.1 °F (1:54 pm)77 °F (3:54 am)
Dewpoint70.4 °F72 °F (5:54 pm)68 °F (3:54 pm)
Humidity67.7 %79 % (3:54 am)53 % (12:54 pm)
Barometer29.89 in29.95 in (9:54 pm)29.84 in (3:54 pm)
Wind Speed9.2 mph13.8 mph (6:54 pm)
Weather ElementAverage
Visibility10 mi
Wind DirectionENE (64.8 °)

Weather ElementTotal
Precipitation---
Cooling Degree Days18.1 (Base 65)
Growing Degree Days33.1 (Base 50)
Averaged from 23 records on March 15, 2013
WEATHER CONDITIONS BREAKOUT
WIND DIRECTION BREAKOUT
WEATHER BY HOUR - MARCH 15, 2013
[ °C ]   °F
Local TimeTemperatureDewpointHumidityBarometerVisibilityWind DirectionWind SpeedGust SpeedPrecipitationEventsConditions
1:54 AM78.1 °F69.1 °F74 %29.89 in10.0 miENE (60°)5.8 mphClear
2:54 AM78.1 °F69.1 °F74 %29.87 in10.0 miENE (60°)5.8 mphClear
3:54 AM77.0 °F70.0 °F79 %29.86 in10.0 miNE (50°)6.9 mphScattered Clouds
4:54 AM77.0 °F70.0 °F79 %29.86 in10.0 miNE (50°)6.9 mphClear
5:54 AM78.1 °F70.0 °F76 %29.88 in10.0 miENE (60°)4.6 mphClear
6:54 AM80.1 °F70.0 °F71 %29.89 in10.0 miENE (70°)6.9 mphClear
7:54 AM82.0 °F71.1 °F69 %29.92 in10.0 miEast (80°)8.1 mphPartly Cloudy
8:54 AM82.9 °F70.0 °F65 %29.94 in10.0 miEast (80°)10.4 mphPartly Cloudy
9:54 AM84.9 °F69.1 °F59 %29.94 in10.0 miENE (60°)10.4 mphPartly Cloudy
10:54 AM84.9 °F69.1 °F59 %29.92 in10.0 miEast (90°)6.9 mphClear
11:54 AM88.0 °F71.1 °F57 %29.89 in10.0 miESE (110°)9.2 mphPartly Cloudy
12:54 PM88.0 °F69.1 °F53 %29.88 in10.0 miEast (90°)10.4 mphClear
1:54 PM89.1 °F71.1 °F55 %29.85 in10.0 miEast (100°)11.5 mphPartly Cloudy
2:54 PM87.1 °F70.0 °F57 %29.85 in10.0 miEast (90°)11.5 mphMostly Cloudy
3:54 PM87.1 °F68.0 °F53 %29.84 in10.0 miNE (50°)10.4 mphMostly Cloudy
4:54 PM86.0 °F70.0 °F59 %29.85 in10.0 miNE (50°)11.5 mphScattered Clouds
5:54 PM84.0 °F72.0 °F67 %29.87 in10.0 miNE (40°)12.7 mphScattered Clouds
6:54 PM82.0 °F72.0 °F71 %29.89 in10.0 miNE (50°)13.8 mphScattered Clouds
7:54 PM81.0 °F72.0 °F74 %29.91 in10.0 miNE (40°)12.7 mphScattered Clouds
8:54 PM80.1 °F72.0 °F76 %29.93 in10.0 miNE (40°)9.2 mphScattered Clouds
9:54 PM79.0 °F72.0 °F79 %29.95 in10.0 miNE (50°)9.2 mphPartly Cloudy
10:54 PM80.1 °F72.0 °F76 %29.95 in10.0 miENE (60°)8.1 mphPartly Cloudy
11:54 PM80.1 °F71.1 °F74 %29.95 in10.0 miENE (60°)8.1 mphPartly Cloudy
Hourly data recorded from PGUM, located miles away from Yigo, Guam







STORIES FROM OUR PARTNERS